NW Arkansas Airport, AR

9:21 PM CST on November 20, 2017 (GMT -0600)
Northwest Arkansas Regional

Weather History for KXNA - June, 2013

Change the Weather History Date:

Saturday, June 29, 2013

  Actual Average (KVBT) Record (KVBT)
Temperature  
Mean Temperature 76 °F -  
Max Temperature 88 °F 86 °F 101 °F (1952)
Min Temperature 66 °F 64 °F 54 °F (1985)
Cooling Degree Days 12    
Growing Degree Days 26 (Base 50)    
Moisture  
Dew Point 53 °F    
Average Humidity 47    
Maximum Humidity 70    
Minimum Humidity 28    
Precipitation  
Precipitation 0.00 in - - ()
Sea Level Pressure  
Sea Level Pressure 29.83 in    
Wind  
Wind Speed 10 mph (NNW)    
Max Wind Speed 23 mph    
Max Gust Speed 30 mph    
Visibility 10 miles    
Events      
Averages and records for this station are not official NWS values.
T = Trace of Precipitation, MM = Missing Value Source: NWS Daily Summary

Daily Weather History Graph

Daily Weather History Graph

Search for Another Location

Airport or City:

Trip Planner

Search our weather history database for the weather conditions in past years. The results will help you decide how hot, cold, wet, or windy it might be!

Date:

Astronomy

Jun. 29, 2013 Rise Set
Actual Time 6:02 AM CDT 8:38 PM CDT
Civil Twilight 5:32 AM CDT 9:09 PM CDT
Nautical Twilight 4:54 AM CDT 9:46 PM CDT
Astronomical Twilight 4:12 AM CDT 10:28 PM CDT
Moon 12:20 AM CDT (6/29) 1:01 PM CDT (6/29)
Length of Visible Light 15h 36m
Length of Day
14h 36m
Waning Gibbous, 55% of the Moon is Illuminated
Jun 29
Waning Gibbous
Jun 29
Last Quarter
Jul 8
New
Jul 15
First Quarter
Jul 22
Full

Hourly Weather History & Observations

Time (CDT) Temp. Heat Index Dew Point Humidity Pressure Visibility Wind Dir Wind Speed Gust Speed Precip Events Conditions
12:53 AM 70.0 °F - 59.0 °F 68% 29.85 in 10.0 mi North 8.1 mph - N/A   Clear
1:53 AM 68.0 °F - 57.0 °F 68% 29.86 in 10.0 mi North 4.6 mph - N/A   Clear
3:53 AM 66.0 °F - 55.9 °F 70% 29.86 in 10.0 mi NW 3.5 mph - N/A   Clear
4:53 AM 66.9 °F - 55.0 °F 66% 29.86 in 10.0 mi WNW 4.6 mph - N/A   Clear
5:53 AM 68.0 °F - 55.0 °F 63% 29.86 in 10.0 mi WNW 8.1 mph - N/A   Unknown
6:53 AM 70.0 °F - 57.0 °F 63% 29.86 in 10.0 mi WNW 10.4 mph - N/A   Clear
8:53 AM 75.0 °F - 57.9 °F 55% 29.88 in 10.0 mi North 9.2 mph - N/A   Unknown
9:53 AM 79.0 °F - 57.0 °F 47% 29.88 in 10.0 mi North 11.5 mph - N/A   Clear
10:53 AM 82.0 °F 81.3 °F 54.0 °F 38% 29.86 in 10.0 mi NNW 11.5 mph 21.9 mph N/A   Clear
11:53 AM 82.9 °F 81.8 °F 53.1 °F 36% 29.86 in 10.0 mi NNW 15.0 mph 24.2 mph N/A   Partly Cloudy
12:53 PM 84.0 °F 82.6 °F 54.0 °F 35% 29.85 in 10.0 mi NNW 16.1 mph 25.3 mph N/A   Partly Cloudy
1:53 PM 86.0 °F - 48.9 °F 28% 29.83 in 9.0 mi North 23.0 mph 28.8 mph N/A   Clear
2:53 PM 87.1 °F - 50.0 °F 28% 29.82 in 10.0 mi NNW 19.6 mph 29.9 mph N/A   Clear
3:53 PM 87.1 °F - 50.0 °F 28% 29.81 in 10.0 mi NNW 16.1 mph 28.8 mph N/A   Clear
4:53 PM 86.0 °F - 48.9 °F 28% 29.80 in 10.0 mi North 21.9 mph 27.6 mph N/A   Clear
5:53 PM 84.9 °F - 48.0 °F 28% 29.79 in 10.0 mi NW 12.7 mph 25.3 mph N/A   Partly Cloudy
6:53 PM 82.9 °F - 51.1 °F 33% 29.78 in 10.0 mi NNW 15.0 mph 21.9 mph N/A   Clear
7:53 PM 79.0 °F - 52.0 °F 39% 29.79 in 10.0 mi NNW 10.4 mph - N/A   Clear
8:53 PM 73.0 °F - 53.1 °F 49% 29.80 in 10.0 mi NNW 5.8 mph - N/A   Clear
9:53 PM 70.0 °F - 53.1 °F 55% 29.81 in 10.0 mi NNW 5.8 mph - N/A   Clear
10:53 PM 68.0 °F - 52.0 °F 56% 29.82 in 10.0 mi NNW 6.9 mph - N/A   Clear
11:53 PM 68.0 °F - 53.1 °F 59% 29.83 in 10.0 mi NNW 9.2 mph - N/A   Clear